Find Starlink 37014

NORAD ID: 68216 Int'l Des: 2026-053 Owner: SPXS Country: US Constellation: starlink operational
LEOCIRCULARRETROGRADE

現在のビュー

3D地球を読み込み中...

About Starlink 37014

Starlink 37014 (NORAD 68216) is a starlink constellation satellite (v2 mini) launched Mar 17, 2026 by SPXS of US. It operates in LEO, CIRCULAR, RETROGRADE orbit with a mass of 575.00 kg.

Starlink 37014について

説明を読み込み中...

次回通過

Passes for default location (London). Set your location on the main map for personalized predictions.

高度履歴

Loading altitude history...

軌道要素

1 68216U 26053K 26167.19434713 .00019053 00000-0 59081-3 0 9997
2 68216 97.2849 42.3230 0000402 125.2330 234.8950 15.33455722 15318
Epoch: Jun 16, 2026 • Age: 12 hours

現在のステータス

高度 475.4 km
速度 7.63 km/s
衛星直下点 -26.26°S, 66.4°E
打ち上げ日 Mar 17, 2026
運用期間 0.2 years
タイプ internet

技術仕様

分類 Payload
質量 575.00 kg
乾燥質量 530.00 kg
総質量 575.00 kg
長さ 0.30 m
直径 4.10 m
スパン 29.00 m
形状 Box + pan
製造者 SPXS
バスタイプ Starlink V2MO
フェーズステータス In Orbit
所有者/国 SPXS/US

Most Searched